| time (UTC) | temp F | wind direction | speed knots | gust knots | rain 1hr in | rain 24hr in | rain mn in | humidity % | barometer mb |
| 20260510104545 | 67 | 110 | 6.1 | 6.1 | 0.00 | 0.00 | 0.06 | ||
| 20260510103510 | 68 | 96 | 4.3 | 5.2 | 0.00 | 0.00 | 0.06 | ||
| 20260510102434 | 68 | 100 | 6.1 | 6.1 | 0.00 | 0.00 | 0.06 | ||
| 20260510101359 | 67 | 82 | 4.3 | 5.2 | 0.00 | 0.00 | 0.06 | ||
| 20260510100322 | 68 | 60 | 0.0 | 0.0 | 0.00 | 0.00 | 0.06 | ||
| 20260510095246 | 68 | 45 | 4.3 | 4.3 | 0.00 | 0.00 | 0.06 | ||
| 20260510094211 | 68 | 55 | 4.3 | 4.3 | 0.00 | 0.00 | 0.06 | ||
| 20260510093135 | 68 | 45 | 5.2 | 5.2 | 0.00 | 0.00 | 0.06 | ||
| 20260510092059 | 68 | 359 | 3.5 | 4.3 | 0.00 | 0.00 | 0.06 | ||
| 20260510091023 | 69 | 59 | 0.9 | 0.0 | 0.00 | 0.00 | 0.06 | ||
| 20260510085947 | 69 | 100 | 2.6 | 1.7 | 0.00 | 0.00 | 0.06 | ||
| 20260510084912 | 70 | 359 | 4.3 | 4.3 | 0.00 | 0.00 | 0.06 | ||
| 20260510083836 | 70 | 113 | 4.3 | 4.3 | 0.00 | 0.00 | 0.06 | ||
| 20260510082800 | 70 | 100 | 0.0 | 0.0 | 0.00 | 0.00 | 0.06 | ||
| 20260510081724 | 70 | 114 | 4.3 | 4.3 | 0.00 | 0.00 | 0.06 | ||
| 20260510080645 | 71 | 80 | 0.0 | 0.0 | 0.00 | 0.00 | 0.06 | ||
| 20260510075609 | 71 | 359 | 4.3 | 0.0 | 0.00 | 0.00 | 0.06 | ||
| 20260510074534 | 71 | 101 | 1.7 | 3.5 | 0.00 | 0.00 | 0.06 | ||
| 20260510073458 | 71 | 98 | 3.5 | 3.5 | 0.00 | 0.00 | 0.06 | ||
| 20260510072422 | 71 | 111 | 4.3 | 4.3 | 0.00 | 0.00 | 0.06 | ||
| 20260510071346 | 72 | 122 | 4.3 | 4.3 | 0.00 | 0.00 | 0.06 | ||
| 20260510070310 | 72 | 115 | 5.2 | 5.2 | 0.00 | 0.00 | 0.06 | ||
| 20260510065235 | 73 | 143 | 4.3 | 4.3 | 0.00 | 0.00 | 0.06 | ||
| 20260510064159 | 73 | 132 | 6.1 | 4.3 | 0.00 | 0.00 | 0.06 | ||
| 20260510063123 | 73 | 134 | 5.2 | 3.5 | 0.00 | 0.00 | 0.06 | ||
| 20260510062047 | 74 | 122 | 5.2 | 6.1 | 0.00 | 0.00 | 0.06 | ||
| 20260510061011 | 74 | 142 | 5.2 | 4.3 | 0.00 | 0.00 | 0.06 | ||
| 20260510055935 | 74 | 138 | 5.2 | 7.0 | 0.00 | 0.00 | 0.06 | ||
| 20260510054859 | 74 | 155 | 7.0 | 5.2 | 0.00 | 0.00 | 0.06 | ||
| 20260510053824 | 75 | 132 | 6.1 | 6.1 | 0.00 | 0.00 | 0.06 | ||
| 20260510052748 | 75 | 118 | 7.0 | 7.0 | 0.00 | 0.00 | 0.06 | ||
| 20260510051712 | 76 | 134 | 6.1 | 8.7 | 0.00 | 0.00 | 0.06 | ||
| 20260510050636 | 76 | 131 | 7.8 | 8.7 | 0.00 | 0.00 | 0.06 | ||
| 20260510045600 | 76 | 129 | 6.1 | 6.1 | 0.00 | 0.00 | 0.06 | ||
| 20260510044524 | 77 | 127 | 7.8 | 7.8 | 0.00 | 0.00 | 0.06 | ||
| 20260510043449 | 77 | 110 | 9.6 | 10.4 | 0.00 | 0.00 | 0.06 | ||
| 20260510042413 | 77 | 138 | 8.7 | 7.0 | 0.00 | 0.00 | 0.06 | ||
| 20260510041337 | 77 | 115 | 7.0 | 7.0 | 0.00 | 0.00 | 0.06 | ||
| 20260510040301 | 77 | 117 | 6.1 | 7.0 | 0.00 | 0.00 | 0.06 | ||
| 20260510035225 | 77 | 73 | 5.2 | 5.2 | 0.00 | 0.00 | 0.06 | ||
| 20260510034150 | 77 | 91 | 5.2 | 5.2 | 0.00 | 0.00 | 0.06 | ||
| 20260510033114 | 77 | 79 | 5.2 | 6.1 | 0.00 | 0.00 | 0.06 | ||
| 20260510032038 | 78 | 91 | 5.2 | 5.2 | 0.00 | 0.00 | 0.06 | ||
| 20260510025927 | 79 | 87 | 5.2 | 5.2 | 0.00 | 0.00 | 0.06 | ||
| 20260510024851 | 79 | 87 | 5.2 | 5.2 | 0.00 | 0.00 | 0.06 | ||
| 20260510023815 | 79 | 87 | 5.2 | 5.2 | 0.00 | 0.00 | 0.06 | ||
| 20260510022739 | 79 | 108 | 4.3 | 5.2 | 0.00 | 0.00 | 0.06 | ||
| 20260510021703 | 79 | 98 | 4.3 | 4.3 | 0.00 | 0.00 | 0.06 | ||
| 20260510020628 | 80 | 94 | 4.3 | 4.3 | 0.00 | 0.00 | 0.06 | ||
| 20260510015552 | 80 | 111 | 4.3 | 4.3 | 0.00 | 0.00 | 0.06 | ||
| 20260510014516 | 80 | 115 | 3.5 | 3.5 | 0.00 | 0.00 | 0.06 | ||
| 20260510013440 | 81 | 114 | 3.5 | 4.3 | 0.00 | 0.00 | 0.06 | ||
| 20260510012405 | 82 | 125 | 3.5 | 4.3 | 0.00 | 0.00 | 0.06 | ||
| 20260510011329 | 84 | 117 | 3.5 | 2.6 | 0.00 | 0.00 | 0.06 | ||
| 20260510010253 | 88 | 141 | 2.6 | 3.5 | 0.00 | 0.00 | 0.06 | ||
| 20260510005218 | 91 | 118 | 0.0 | 0.0 | 0.00 | 0.00 | 0.06 | ||
| 20260510004142 | 92 | 150 | 3.5 | 2.6 | 0.00 | 0.00 | 0.06 | ||
| 20260510003106 | 91 | 122 | 3.5 | 4.3 | 0.00 | 0.00 | 0.06 | ||
| 20260510002030 | 93 | 120 | 5.2 | 4.3 | 0.00 | 0.00 | 0.06 | ||
| 20260510000955 | 93 | 100 | 4.3 | 2.6 | 0.00 | 0.00 | 0.06 | ||
| 20260509235919 | 92 | 114 | 4.3 | 6.1 | 0.00 | 0.00 | 0.06 | ||
| 20260509234843 | 92 | 125 | 6.1 | 5.2 | 0.00 | 0.00 | 0.06 | ||
| 20260509233808 | 95 | 136 | 7.0 | 7.8 | 0.00 | 0.00 | 0.06 | ||
| 20260509232732 | 96 | 69 | 0.0 | 0.0 | 0.00 | 0.00 | 0.06 | ||
| 20260509231656 | 100 | 131 | 0.9 | 0.0 | 0.00 | 0.00 | 0.06 | ||
| 20260509230620 | 98 | 124 | 6.1 | 6.1 | 0.00 | 0.00 | 0.06 | ||
| 20260509225545 | 98 | 198 | 0.0 | 0.0 | 0.00 | 0.00 | 0.06 | ||
| 20260509224509 | 99 | 191 | 3.5 | 2.6 | 0.00 | 0.00 | 0.06 | ||
| 20260509223433 | 98 | 204 | 3.5 | 5.2 | 0.00 | 0.00 | 0.06 | ||
| 20260509222358 | 99 | 190 | 4.3 | 1.7 | 0.00 | 0.00 | 0.06 | ||
| 20260509221322 | 98 | 120 | 2.6 | 0.0 | 0.00 | 0.00 | 0.06 | ||
| 20260509220246 | 93 | 359 | 0.0 | 0.0 | 0.00 | 0.00 | 0.06 | ||
| 20260509215211 | 93 | 142 | 0.0 | 0.0 | 0.00 | 0.00 | 0.06 | ||
| 20260509214135 | 91 | 259 | 3.5 | 2.6 | 0.00 | 0.00 | 0.06 | ||
| 20260509213059 | 94 | 217 | 4.3 | 7.0 | 0.00 | 0.00 | 0.06 | ||
| 20260509212023 | 92 | 236 | 1.7 | 0.0 | 0.00 | 0.00 | 0.06 | ||
| 20260509210948 | 92 | 188 | 4.3 | 2.6 | 0.00 | 0.00 | 0.06 | ||
| 20260509205912 | 90 | 256 | 4.3 | 4.3 | 0.00 | 0.00 | 0.06 | ||
| 20260509204836 | 89 | 257 | 3.5 | 0.0 | 0.00 | 0.00 | 0.06 | ||
| 20260509203801 | 90 | 277 | 4.3 | 4.3 | 0.00 | 0.00 | 0.06 | ||
| 20260509202725 | 92 | 93 | 3.5 | 2.6 | 0.00 | 0.00 | 0.06 | ||
| 20260509201649 | 91 | 0 | 0.0 | 0.0 | 0.00 | 0.00 | 0.06 | ||
| 20260509200613 | 91 | 207 | 4.3 | 1.7 | 0.00 | 0.00 | 0.06 | ||
| 20260509195538 | 88 | 278 | 4.3 | 4.3 | 0.00 | 0.00 | 0.06 | ||
| 20260509194502 | 89 | 256 | 5.2 | 6.1 | 0.00 | 0.00 | 0.06 | ||
| 20260509193426 | 91 | 215 | 4.3 | 2.6 | 0.00 | 0.00 | 0.06 | ||
| 20260509192351 | 90 | 176 | 7.0 | 5.2 | 0.00 | 0.00 | 0.06 | ||
| 20260509191315 | 88 | 212 | 5.2 | 8.7 | 0.00 | 0.00 | 0.06 | ||
| 20260509190239 | 87 | 205 | 8.7 | 7.8 | 0.00 | 0.00 | 0.06 | ||
| 20260509185201 | 86 | 248 | 7.8 | 7.0 | 0.00 | 0.00 | 0.06 | ||
| 20260509184125 | 87 | 267 | 7.8 | 6.1 | 0.00 | 0.00 | 0.06 | ||
| 20260509183049 | 88 | 224 | 8.7 | 9.6 | 0.00 | 0.00 | 0.06 | ||
| 20260509182013 | 86 | 226 | 8.7 | 7.0 | 0.00 | 0.00 | 0.06 | ||
| 20260509180938 | 87 | 218 | 6.1 | 7.8 | 0.00 | 0.00 | 0.06 | ||
| 20260509175902 | 86 | 250 | 6.1 | 8.7 | 0.00 | 0.00 | 0.06 | ||
| 20260509174826 | 86 | 232 | 7.8 | 7.8 | 0.00 | 0.00 | 0.06 | ||
| 20260509173750 | 87 | 232 | 7.0 | 7.0 | 0.00 | 0.00 | 0.06 | ||
| 20260509172715 | 86 | 177 | 9.6 | 7.8 | 0.00 | 0.00 | 0.06 | ||
| 20260509171639 | 86 | 219 | 7.0 | 6.1 | 0.00 | 0.00 | 0.06 | ||
| 20260509170603 | 86 | 208 | 8.7 | 11.3 | 0.00 | 0.00 | 0.06 | ||
| 20260509165528 | 86 | 229 | 7.0 | 8.7 | 0.00 | 0.00 | 0.06 | ||
| 20260509164452 | 87 | 160 | 7.0 | 7.0 | 0.00 | 0.00 | 0.06 | ||
| 20260509163416 | 88 | 195 | 4.3 | 9.6 | 0.00 | 0.00 | 0.06 | ||
| 20260509162340 | 88 | 212 | 9.6 | 7.0 | 0.00 | 0.00 | 0.06 | ||
| 20260509161305 | 87 | 186 | 6.1 | 5.2 | 0.00 | 0.00 | 0.06 | ||
| 20260509160229 | 87 | 203 | 6.1 | 7.0 | 0.00 | 0.00 | 0.06 | ||
| 20260509155153 | 84 | 136 | 5.2 | 3.5 | 0.00 | 0.00 | 0.06 | ||
| 20260509154118 | 81 | 218 | 3.5 | 2.6 | 0.04 | 0.00 | 0.06 | ||
| 20260509153042 | 78 | 86 | 0.0 | 0.0 | 0.04 | 0.00 | 0.06 | ||
| 20260509152006 | 76 | 86 | 0.0 | 0.0 | 0.04 | 0.00 | 0.06 | ||
| 20260509150930 | 78 | 86 | 0.0 | 0.0 | 0.04 | 0.00 | 0.06 | ||
| 20260509145855 | 79 | 86 | 0.0 | 0.0 | 0.04 | 0.00 | 0.06 | ||
| 20260509144819 | 76 | 86 | 0.0 | 0.0 | 0.04 | 0.00 | 0.06 | ||
| 20260509143743 | 72 | 86 | 0.0 | 0.0 | 0.02 | 0.00 | 0.06 | ||
| 20260509141632 | 73 | 86 | 0.0 | 0.0 | 0.02 | 0.00 | 0.03 | ||
| 20260509140556 | 73 | 86 | 0.0 | 0.0 | 0.02 | 0.00 | 0.03 | ||
| 20260509135520 | 73 | 86 | 0.0 | 0.0 | 0.02 | 0.00 | 0.02 | ||
| 20260509134445 | 73 | 184 | 3.5 | 5.2 | 0.02 | 0.00 | 0.02 | ||
| 20260509133409 | 72 | 11 | 0.0 | 0.0 | 0.00 | 0.00 | 0.01 | ||
| 20260509132333 | 72 | 11 | 0.0 | 0.0 | 0.00 | 0.00 | 0.01 | ||
| 20260509131257 | 72 | 332 | 3.5 | 7.0 | 0.00 | 0.00 | 0.01 | ||
| 20260509130222 | 72 | 10 | 0.0 | 0.0 | 0.00 | 0.00 | 0.00 | ||
| 20260509125146 | 72 | 359 | 3.5 | 0.0 | 0.00 | 0.00 | 0.00 | ||
| 20260509124110 | 72 | 48 | 5.2 | 4.3 | 0.00 | 0.00 | 0.00 | ||
| 20260509123035 | 72 | 62 | 5.2 | 4.3 | 0.00 | 0.00 | 0.00 | ||
| 20260509121959 | 72 | 39 | 4.3 | 4.3 | 0.00 | 0.00 | 0.00 | ||
| 20260509120923 | 72 | 49 | 0.0 | 0.0 | 0.00 | 0.00 | 0.00 | ||
| 20260509115847 | 72 | 250 | 0.0 | 0.0 | 0.00 | 0.00 | 0.00 | ||
| 20260509114812 | 72 | 250 | 0.0 | 0.0 | 0.00 | 0.00 | 0.00 | ||
| 20260509113736 | 72 | 250 | 0.0 | 0.0 | 0.00 | 0.00 | 0.00 | ||
| 20260509112700 | 72 | 250 | 0.0 | 0.0 | 0.00 | 0.00 | 0.00 | ||
| 20260509111624 | 72 | 250 | 0.0 | 0.0 | 0.00 | 0.00 | 0.00 | ||
| 20260509110549 | 72 | 250 | 0.0 | 0.0 | 0.00 | 0.00 | 0.00 |